TimeCST,TemperatureF,Dew PointF,Humidity,Sea Level PressureIn,VisibilityMPH,Wind Direction,Wind SpeedMPH,Gust SpeedMPH,PrecipitationIn,Events,Conditions,WindDirDegrees,DateUTC
12:15 AM,44.6,44.1,98,29.88,3.0,South,12.7,17.3,N/A,,Mist,170,2013-01-28 06:15:00
12:35 AM,45.5,44.8,97,29.87,4.0,South,17.3,20.7,N/A,,Mist,180,2013-01-28 06:35:00
12:55 AM,45.9,45.0,97,29.86,4.0,South,13.8,19.6,N/A,,Mist,180,2013-01-28 06:55:00
1:15 AM,46.2,45.3,97,29.86,4.0,South,16.1,23.0,N/A,,Mist,180,2013-01-28 07:15:00
1:35 AM,46.4,45.3,96,29.86,4.0,South,17.3,21.9,N/A,,Mist,180,2013-01-28 07:35:00
1:55 AM,46.2,45.3,97,29.86,3.0,South,16.1,21.9,N/A,,Mist,190,2013-01-28 07:55:00
2:15 AM,46.8,45.7,96,29.86,4.0,South,15.0,24.2,N/A,Rain,Light Rain,180,2013-01-28 08:15:00
2:35 AM,47.1,46.0,96,29.86,4.0,South,17.3,21.9,N/A,,Mist,180,2013-01-28 08:35:00
2:55 AM,47.3,46.4,97,29.85,3.0,South,17.3,21.9,N/A,,Mist,180,2013-01-28 08:55:00
3:15 AM,47.5,46.4,96,29.85,4.0,South,13.8,21.9,N/A,,Mist,180,2013-01-28 09:15:00
3:35 AM,47.5,46.6,97,29.84,3.0,South,16.1,21.9,N/A,,Mist,180,2013-01-28 09:35:00
3:55 AM,47.5,46.8,97,29.84,3.0,South,17.3,20.7,N/A,,Mist,190,2013-01-28 09:55:00
4:15 AM,47.5,46.8,97,29.84,3.0,South,12.7,18.4,N/A,,Mist,190,2013-01-28 10:15:00
4:35 AM,47.8,47.1,97,29.84,3.0,South,15.0,19.6,N/A,,Mist,190,2013-01-28 10:35:00
4:55 AM,47.8,47.3,98,29.83,3.0,South,15.0,-,N/A,,Overcast,180,2013-01-28 10:55:00
5:15 AM,47.8,47.3,98,29.84,3.0,South,12.7,-,N/A,,Overcast,190,2013-01-28 11:15:00
5:35 AM,48.2,48.2,100,29.84,3.0,South,12.7,19.6,N/A,,Overcast,190,2013-01-28 11:35:00
5:55 AM,47.8,47.3,98,29.84,3.0,South,12.7,17.3,N/A,,Overcast,190,2013-01-28 11:55:00
6:15 AM,48.2,47.5,97,29.85,3.0,South,11.5,17.3,N/A,,Overcast,190,2013-01-28 12:15:00
6:35 AM,48.2,47.7,98,29.85,3.0,South,10.4,16.1,N/A,Rain,Rain,190,2013-01-28 12:35:00
6:55 AM,48.2,47.7,98,29.86,2.0,South,9.2,-,N/A,,Drizzle,190,2013-01-28 12:55:00
7:15 AM,48.2,47.7,98,29.87,1.8,SSW,6.9,-,N/A,,Light Drizzle,200,2013-01-28 13:15:00
7:35 AM,47.7,47.5,99,29.88,1.5,SSW,6.9,-,N/A,,Overcast,210,2013-01-28 13:35:00
7:55 AM,47.5,47.5,100,29.89,0.8,SSW,5.8,-,N/A,,Overcast,210,2013-01-28 13:55:00
8:15 AM,47.5,47.5,100,29.90,0.5,Calm,Calm,-,N/A,Rain,Rain,0,2013-01-28 14:15:00
8:35 AM,48.2,48.2,100,29.91,0.2,SSW,3.5,-,N/A,,Light Drizzle,210,2013-01-28 14:35:00
8:55 AM,48.2,48.2,100,29.91,0.5,South,3.5,-,N/A,Fog,Fog,190,2013-01-28 14:55:00
9:15 AM,47.7,47.7,100,29.92,0.2,Calm,Calm,-,N/A,Fog,Fog,0,2013-01-28 15:15:00
9:35 AM,48.2,48.2,100,29.93,0.2,Calm,Calm,-,N/A,Fog,Fog,0,2013-01-28 15:35:00
9:55 AM,48.6,48.6,100,29.93,2.0,WSW,3.5,-,N/A,,Overcast,240,2013-01-28 15:55:00
10:15 AM,48.4,48.2,99,29.94,2.5,West,3.5,-,N/A,,Overcast,270,2013-01-28 16:15:00
10:35 AM,47.5,47.5,100,29.94,1.5,WNW,4.6,-,N/A,,Overcast,290,2013-01-28 16:35:00
10:55 AM,48.2,48.2,100,29.94,0.8,WNW,3.5,-,N/A,,Overcast,290,2013-01-28 16:55:00
11:15 AM,48.2,47.3,97,29.94,3.0,West,5.8,-,N/A,,Overcast,280,2013-01-28 17:15:00
11:35 AM,47.7,46.6,96,29.94,3.0,WNW,3.5,-,N/A,,Overcast,300,2013-01-28 17:35:00
11:55 AM,47.7,46.2,95,29.93,3.0,NW,4.6,-,N/A,,Overcast,310,2013-01-28 17:55:00
12:15 PM,47.7,46.4,95,29.93,3.0,Calm,Calm,-,N/A,,Overcast,0,2013-01-28 18:15:00
12:35 PM,48.0,45.9,92,29.91,3.0,Calm,Calm,-,N/A,,Overcast,0,2013-01-28 18:35:00
12:55 PM,48.2,46.0,92,29.91,3.0,NNW,3.5,-,N/A,,Overcast,340,2013-01-28 18:55:00
1:15 PM,48.2,46.2,93,29.91,3.0,Calm,Calm,-,N/A,,Overcast,0,2013-01-28 19:15:00
1:35 PM,48.2,46.2,93,29.90,3.0,Calm,Calm,-,N/A,,Overcast,0,2013-01-28 19:35:00
1:55 PM,48.4,46.4,93,29.90,3.0,NNW,3.5,-,N/A,,Overcast,340,2013-01-28 19:55:00
2:15 PM,47.7,46.4,95,29.90,3.0,Calm,Calm,-,N/A,,Overcast,0,2013-01-28 20:15:00
2:35 PM,47.5,46.0,95,29.90,2.5,Calm,Calm,-,N/A,,Overcast,0,2013-01-28 20:35:00
2:55 PM,47.3,45.9,95,29.90,2.0,Calm,Calm,-,N/A,,Overcast,0,2013-01-28 20:55:00
3:15 PM,47.5,46.0,95,29.91,2.5,Calm,Calm,-,N/A,,Overcast,0,2013-01-28 21:15:00
3:35 PM,47.3,45.9,95,29.90,2.5,NE,4.6,-,N/A,,Overcast,50,2013-01-28 21:35:00
3:55 PM,46.0,45.1,97,29.91,1.8,ENE,4.6,-,N/A,,Overcast,60,2013-01-28 21:55:00
4:15 PM,45.0,44.6,99,29.90,0.8,ENE,3.5,-,N/A,,Overcast,70,2013-01-28 22:15:00
4:35 PM,44.6,44.4,99,29.90,0.5,Calm,Calm,-,N/A,Fog,Fog,0,2013-01-28 22:35:00
4:55 PM,44.1,44.1,100,29.89,0.2,ENE,3.5,-,N/A,Fog,Fog,60,2013-01-28 22:55:00
5:15 PM,43.7,43.7,100,29.90,0.8,Calm,Calm,-,N/A,,Overcast,0,2013-01-28 23:15:00
5:35 PM,43.3,43.3,100,29.88,0.8,NE,6.9,-,N/A,,Overcast,50,2013-01-28 23:35:00
5:55 PM,43.3,43.3,100,29.90,1.0,Calm,Calm,-,N/A,,Mist,0,2013-01-28 23:55:00
6:15 PM,42.8,42.8,100,29.90,0.8,Calm,Calm,-,N/A,,Mist,0,2013-01-29 00:15:00
6:35 PM,42.8,42.8,100,29.89,0.5,East,3.5,-,N/A,Fog,Fog,80,2013-01-29 00:35:00
6:55 PM,43.0,43.0,100,29.88,0.5,Calm,Calm,-,N/A,Fog,Fog,0,2013-01-29 00:55:00
7:15 PM,43.0,43.0,100,29.88,0.5,Calm,Calm,-,N/A,Fog,Fog,0,2013-01-29 01:15:00
7:35 PM,43.0,43.0,100,29.88,0.8,Calm,Calm,-,N/A,,Mist,0,2013-01-29 01:35:00
7:55 PM,43.2,43.2,100,29.87,0.5,Calm,Calm,-,N/A,Fog,Fog,0,2013-01-29 01:55:00
8:15 PM,45.3,45.3,100,29.86,0.5,East,3.5,-,N/A,Fog,Fog,100,2013-01-29 02:15:00
8:35 PM,45.9,45.9,100,29.85,0.2,Calm,Calm,-,N/A,Fog,Fog,0,2013-01-29 02:35:00
8:55 PM,46.9,46.9,100,29.84,0.2,SE,8.1,-,N/A,Rain,Rain,140,2013-01-29 02:55:00
9:15 PM,48.6,48.6,100,29.83,0.2,Calm,Calm,-,N/A,Rain,Light Rain,0,2013-01-29 03:15:00
9:35 PM,50.7,50.7,100,29.82,0.5,SSE,6.9,-,N/A,Fog,Fog,150,2013-01-29 03:35:00
9:55 PM,53.4,53.4,100,29.81,1.2,SSE,8.1,-,0.01,,Mist,160,2013-01-29 03:55:00
10:15 PM,54.1,54.1,100,29.80,2.5,SSE,10.4,-,N/A,,Overcast,160,2013-01-29 04:15:00
10:35 PM,55.4,55.4,100,29.79,3.0,SSE,11.5,-,N/A,,Overcast,160,2013-01-29 04:35:00
10:55 PM,54.9,54.7,99,29.78,3.0,SSE,11.5,17.3,N/A,,Overcast,160,2013-01-29 04:55:00
11:15 PM,55.4,54.7,97,29.78,3.0,SSE,10.4,-,N/A,,Overcast,160,2013-01-29 05:15:00
11:35 PM,56.1,55.4,97,29.77,4.0,South,13.8,23.0,N/A,,Overcast,170,2013-01-29 05:35:00
11:55 PM,56.5,55.4,96,29.76,4.0,SSE,11.5,-,N/A,,Mostly Cloudy,160,2013-01-29 05:55:00